Terminal Aerodrome Forecast
Issued by NWS Twin Cities, MN

Home | Current Version | Previous Version | Text Only | Print | Product List | Glossary Off
Versions: 1 2 3 4 5 6 7 8 9 10 11 12 13 14 15 16 17 18 19 20 21 22 23 24 25

000
FTUS43 KMPX 211700
TAFMSP
TAF
KMSP 211729Z 2118/2224 12011KT P6SM SKC
     FM220000 14008KT P6SM SKC
     FM221400 15013G19KT P6SM SCT250
     FM221800 16018G24KT P6SM BKN040 OVC150=

USA.gov is the U.S. government's official web portal to all federal, state and local government web resources and services.